User: anonymous   Login
Location: Springfield
(37.2150°N, 93.2980°W)
Time: 03:08:16
(UTC-05:00)
Language:

Cosmos 2366 rocket - Orbit

View from above orbital plane
View from above orbital plane
View from above satellite
View from above satellite

Ground track
Ground track

The orbit data is extracted from the following two-line orbital elements,

1 25893U 99045B   18233.03514773 -.00000064 +00000-0 -80724-4 0  9998
2 25893 082.9233 064.5347 0028105 334.8173 137.9860 13.76522100953806
Epoch (UTC): 21 August 2018 00:50:36
Eccentricity: 0.0028105
inclination: 82.9233°
perigee height: 955 km
apogee height: 997 km
right ascension of ascending node: 64.5347°
argument of perigee: 334.8173°
revolutions per day: 13.76522100
mean anomaly at epoch: 137.9860°
orbit number at epoch: 95380

The dashed part of the orbit path shows where the satellite is in the earth's shadow,  

DLR